| time (UTC) | temp C | wind direction | speed KPH | gust KPH | rain 1hr cm | rain 24hr cm | rain mn cm | humidity % | barometer mb |
| 20260901140613 | 17 | 217 | 0.0 | 1.6 | 0.00 | 2.03 | 2.03 | 99 | 1069.5 |
| 20260901135612 | 17 | 232 | 1.6 | 3.2 | 0.13 | 2.03 | 2.03 | 99 | 1069.4 |
| 20260901134609 | 17 | 174 | 8.0 | 9.7 | 0.30 | 2.01 | 2.01 | 99 | 1068.9 |
| 20260901133608 | 17 | 193 | 4.8 | 4.8 | 0.48 | 1.96 | 1.96 | 99 | 1069.7 |
| 20260901132608 | 17 | 170 | 8.0 | 9.7 | 0.13 | 1.88 | 1.88 | 99 | 1070.2 |
| 20260901131607 | 16 | 84 | 4.8 | 4.8 | 0.00 | 1.85 | 1.85 | 99 | 1071.2 |
| 20260901130603 | 16 | 353 | 0.0 | 1.6 | 0.00 | 1.85 | 1.85 | 99 | 1070.8 |
| 20260901125600 | 16 | 35 | 3.2 | 3.2 | 0.00 | 1.85 | 1.85 | 99 | 1070.7 |
| 20260901124555 | 16 | 339 | 3.2 | 3.2 | 0.00 | 1.85 | 1.85 | 99 | 1070.8 |
| 20260901123551 | 16 | 334 | 0.0 | 1.6 | 0.00 | 1.85 | 1.85 | 99 | 1070.7 |
| 20260901122549 | 16 | 121 | 1.6 | 1.6 | 0.18 | 1.85 | 1.85 | 99 | 1070.6 |
| 20260901121549 | 16 | 284 | 0.0 | 0.0 | 0.00 | 1.83 | 1.83 | 99 | 1071.0 |
| 20260901120544 | 16 | 295 | 0.0 | 0.0 | 0.00 | 1.83 | 1.83 | 99 | 1070.8 |
| 20260901115541 | 16 | 313 | 0.0 | 0.0 | 0.00 | 1.83 | 1.83 | 99 | 1070.5 |
| 20260901114540 | 16 | 294 | 0.0 | 0.0 | 0.00 | 1.83 | 1.83 | 99 | 1071.0 |
| 20260901113537 | 16 | 291 | 0.0 | 0.0 | 0.18 | 1.83 | 1.83 | 99 | 1070.7 |
| 20260901112533 | 16 | 281 | 0.0 | 0.0 | 0.00 | 1.80 | 1.80 | 99 | 1070.8 |
| 20260901111532 | 16 | 285 | 0.0 | 0.0 | 0.30 | 1.80 | 1.80 | 99 | 1071.0 |
| 20260901110527 | 16 | 304 | 0.0 | 0.0 | 0.13 | 1.75 | 1.75 | 99 | 1071.2 |
| 20260901105525 | 16 | 277 | 0.0 | 0.0 | 0.61 | 1.73 | 1.73 | 99 | 1071.2 |
| 20260901104520 | 16 | 280 | 0.0 | 0.0 | 0.48 | 1.63 | 1.63 | 99 | 1071.2 |
| 20260901103515 | 16 | 268 | 0.0 | 1.6 | 0.00 | 1.55 | 1.55 | 99 | 1070.8 |
| 20260901102511 | 16 | 252 | 1.6 | 1.6 | 0.00 | 1.55 | 1.55 | 99 | 1070.6 |
| 20260901101508 | 16 | 259 | 0.0 | 0.0 | 0.00 | 1.55 | 1.55 | 99 | 1071.0 |
| 20260901100508 | 16 | 106 | 1.6 | 1.6 | 0.13 | 1.55 | 1.55 | 99 | 1070.7 |
| 20260901095505 | 16 | 98 | 4.8 | 4.8 | 0.66 | 1.52 | 1.52 | 99 | 1070.6 |
| 20260901094504 | 16 | 292 | 0.0 | 0.0 | 1.07 | 1.40 | 1.40 | 99 | 1071.0 |
| 20260901093504 | 16 | 285 | 0.0 | 0.0 | 0.13 | 1.22 | 1.22 | 99 | 1070.6 |
| 20260901092500 | 17 | 264 | 0.0 | 0.0 | 0.30 | 1.17 | 1.17 | 99 | 1070.3 |
| 20260901091458 | 16 | 282 | 0.0 | 0.0 | 0.18 | 1.12 | 1.12 | 99 | 1070.3 |
| 20260901090458 | 16 | 282 | 0.0 | 0.0 | 0.30 | 1.09 | 1.09 | 99 | 1070.5 |
| 20260901085454 | 17 | 288 | 0.0 | 0.0 | 0.43 | 1.04 | 1.04 | 99 | 1070.6 |
| 20260901084452 | 16 | 98 | 3.2 | 3.2 | 0.66 | 0.97 | 0.97 | 99 | 1070.5 |
| 20260901083448 | 17 | 172 | 1.6 | 1.6 | 0.61 | 0.84 | 0.84 | 99 | 1070.6 |
| 20260901082447 | 16 | 275 | 0.0 | 0.0 | 0.48 | 0.74 | 0.74 | 99 | 1070.4 |
| 20260901081443 | 17 | 105 | 6.4 | 8.0 | 1.55 | 0.64 | 0.64 | 99 | 1070.2 |
| 20260901080438 | 17 | 302 | 0.0 | 0.0 | 0.97 | 0.36 | 0.36 | 99 | 1070.8 |
| 20260901075433 | 17 | 267 | 0.0 | 0.0 | 0.30 | 0.20 | 0.20 | 99 | 1070.3 |
| 20260901074433 | 17 | 191 | 1.6 | 1.6 | 0.13 | 0.15 | 0.15 | 99 | 1070.2 |
| 20260901073431 | 17 | 89 | 4.8 | 4.8 | 0.30 | 0.13 | 0.13 | 99 | 1070.3 |
| 20260901072432 | 17 | 135 | 3.2 | 3.2 | 0.48 | 0.08 | 0.08 | 99 | 1070.7 |
| 20260901071431 | 17 | 209 | 1.6 | 1.6 | 0.00 | 0.00 | 0.00 | 99 | 1070.8 |
| 20260901070427 | 17 | 197 | 1.6 | 1.6 | 0.00 | 0.00 | 0.00 | 99 | 1071.0 |
| 20260901065421 | 17 | 181 | 1.6 | 3.2 | 0.00 | 0.00 | 0.00 | 99 | 1071.3 |
| 20260901064418 | 17 | 202 | 3.2 | 3.2 | 0.00 | 0.00 | 0.00 | 99 | 1071.3 |
| 20260901063417 | 17 | 212 | 3.2 | 3.2 | 0.00 | 0.00 | 0.00 | 99 | 1071.1 |
| 20260901062415 | 17 | 198 | 3.2 | 3.2 | 0.00 | 0.00 | 0.00 | 99 | 1071.4 |
| 20260901061412 | 17 | 242 | 1.6 | 1.6 | 0.00 | 0.00 | 0.00 | 99 | 1071.5 |
| 20260901060409 | 17 | 199 | 1.6 | 1.6 | 0.00 | 0.00 | 0.00 | 99 | 1071.3 |
| 20260901055404 | 17 | 238 | 1.6 | 1.6 | 0.00 | 0.00 | 0.00 | 99 | 1071.6 |
| 20260901054404 | 17 | 227 | 1.6 | 1.6 | 0.00 | 0.00 | 0.00 | 99 | 1071.7 |
| 20260901053400 | 17 | 189 | 4.8 | 4.8 | 0.00 | 0.00 | 0.00 | 99 | 1071.7 |
| 20260901052357 | 17 | 256 | 0.0 | 0.0 | 0.00 | 0.00 | 0.00 | 99 | 1071.6 |
| 20260901051357 | 17 | 194 | 3.2 | 3.2 | 0.00 | 0.00 | 0.00 | 99 | 1071.8 |
| 20260901050353 | 17 | 274 | 0.0 | 0.0 | 0.00 | 0.00 | 0.00 | 99 | 1072.0 |
| 20260901045353 | 17 | 273 | 1.6 | 1.6 | 0.00 | 0.00 | 0.00 | 99 | 1072.3 |
| 20260901044351 | 17 | 253 | 0.0 | 0.0 | 0.00 | 0.00 | 0.00 | 99 | 1072.1 |
| 20260901043348 | 17 | 142 | 3.2 | 3.2 | 0.00 | 0.00 | 0.00 | 99 | 1072.2 |
| 20260901042348 | 17 | 194 | 1.6 | 3.2 | 0.00 | 0.00 | 0.00 | 99 | 1071.8 |
| 20260901041345 | 17 | 177 | 1.6 | 1.6 | 0.00 | 0.00 | 0.00 | 99 | 1072.3 |
| 20260901040344 | 17 | 225 | 0.0 | 0.0 | 0.00 | 0.00 | 0.00 | 99 | 1072.0 |
| 20260901035343 | 17 | 226 | 1.6 | 1.6 | 0.00 | 0.03 | 0.03 | 99 | 1072.3 |
| 20260901034342 | 17 | 224 | 1.6 | 1.6 | 0.00 | 0.03 | 0.03 | 99 | 1072.5 |
| 20260901033341 | 17 | 194 | 1.6 | 3.2 | 0.00 | 0.03 | 0.03 | 99 | 1072.1 |
| 20260901032340 | 17 | 162 | 3.2 | 3.2 | 0.00 | 0.03 | 0.03 | 99 | 1072.3 |
| 20260901031337 | 17 | 201 | 3.2 | 3.2 | 0.00 | 0.03 | 0.03 | 99 | 1072.5 |
| 20260901030332 | 17 | 257 | 0.0 | 0.0 | 0.00 | 0.03 | 0.03 | 99 | 1072.5 |
| 20260901025332 | 17 | 235 | 1.6 | 1.6 | 0.00 | 0.03 | 0.03 | 99 | 1072.6 |
| 20260901024332 | 17 | 201 | 1.6 | 1.6 | 0.00 | 0.03 | 0.03 | 99 | 1072.6 |
| 20260901023331 | 17 | 212 | 0.0 | 0.0 | 0.00 | 0.03 | 0.03 | 99 | 1072.6 |
| 20260901022328 | 17 | 221 | 1.6 | 3.2 | 0.00 | 0.03 | 0.03 | 99 | 1072.6 |
| 20260901021325 | 17 | 249 | 0.0 | 1.6 | 0.00 | 0.03 | 0.03 | 99 | 1072.6 |
| 20260901020321 | 17 | 194 | 1.6 | 1.6 | 0.00 | 0.03 | 0.03 | 99 | 1072.8 |
| 20260901015317 | 17 | 261 | 0.0 | 0.0 | 0.00 | 0.03 | 0.03 | 99 | 1072.9 |
| 20260901014312 | 17 | 263 | 0.0 | 1.6 | 0.00 | 0.03 | 0.03 | 99 | 1072.9 |
| 20260901013309 | 17 | 265 | 0.0 | 0.0 | 0.00 | 0.03 | 0.03 | 99 | 1072.8 |
| 20260901012306 | 17 | 268 | 0.0 | 0.0 | 0.00 | 0.03 | 0.03 | 99 | 1073.4 |
| 20260901011301 | 17 | 280 | 0.0 | 0.0 | 0.00 | 0.03 | 0.03 | 99 | 1073.4 |
| 20260901010302 | 17 | 275 | 0.0 | 0.0 | 0.00 | 0.03 | 0.03 | 99 | 1072.9 |
| 20260901005256 | 17 | 275 | 0.0 | 0.0 | 0.00 | 0.03 | 0.03 | 99 | 1072.9 |
| 20260901004251 | 17 | 186 | 1.6 | 1.6 | 0.00 | 0.03 | 0.03 | 99 | 1072.4 |
| 20260901003251 | 17 | 236 | 1.6 | 1.6 | 0.00 | 0.03 | 0.03 | 99 | 1072.8 |
| 20260901002251 | 17 | 257 | 0.0 | 0.0 | 0.00 | 0.03 | 0.03 | 99 | 1072.5 |
| 20260901001248 | 17 | 264 | 0.0 | 0.0 | 0.00 | 0.03 | 0.03 | 99 | 1072.4 |
| 20260901000244 | 17 | 256 | 0.0 | 1.6 | 0.00 | 0.03 | 0.03 | 99 | 1072.3 |
| 20260831235244 | 17 | 249 | 0.0 | 1.6 | 0.00 | 0.03 | 0.03 | 99 | 1072.5 |
| 20260831234243 | 17 | 236 | 1.6 | 1.6 | 0.00 | 0.03 | 0.03 | 99 | 1072.6 |
| 20260831233240 | 17 | 241 | 1.6 | 3.2 | 0.00 | 0.03 | 0.03 | 99 | 1072.5 |
| 20260831232237 | 17 | 193 | 3.2 | 3.2 | 0.00 | 0.03 | 0.03 | 99 | 1072.8 |
| 20260831231235 | 17 | 257 | 0.0 | 1.6 | 0.00 | 0.03 | 0.03 | 99 | 1072.6 |
| 20260831230230 | 18 | 244 | 0.0 | 1.6 | 0.00 | 0.03 | 0.03 | 99 | 1072.8 |
| 20260831225225 | 18 | 237 | 1.6 | 1.6 | 0.00 | 0.03 | 0.03 | 99 | 1073.1 |
| 20260831224221 | 18 | 272 | 0.0 | 0.0 | 0.00 | 0.03 | 0.03 | 99 | 1073.1 |
| 20260831223219 | 18 | 195 | 3.2 | 3.2 | 0.00 | 0.03 | 0.03 | 98 | 1073.1 |
| 20260831222216 | 18 | 260 | 0.0 | 0.0 | 0.00 | 0.03 | 0.03 | 97 | 1073.3 |
| 20260831221212 | 18 | 250 | 0.0 | 1.6 | 0.00 | 0.03 | 0.03 | 96 | 1073.1 |
| 20260831220208 | 18 | 237 | 1.6 | 1.6 | 0.00 | 0.03 | 0.03 | 95 | 1073.4 |
| 20260831215205 | 18 | 245 | 1.6 | 1.6 | 0.00 | 0.03 | 0.03 | 95 | 1073.5 |
| 20260831214204 | 18 | 197 | 3.2 | 3.2 | 0.00 | 0.03 | 0.03 | 95 | 1073.5 |
| 20260831213201 | 18 | 204 | 3.2 | 3.2 | 0.00 | 0.03 | 0.03 | 95 | 1073.5 |
| 20260831212159 | 18 | 254 | 0.0 | 1.6 | 0.00 | 0.03 | 0.03 | 95 | 1073.8 |
| 20260831211159 | 18 | 259 | 0.0 | 1.6 | 0.00 | 0.03 | 0.03 | 95 | 1073.6 |
| 20260831210155 | 18 | 262 | 0.0 | 0.0 | 0.00 | 0.03 | 0.03 | 95 | 1073.8 |
| 20260831205150 | 18 | 237 | 0.0 | 0.0 | 0.00 | 0.03 | 0.03 | 96 | 1073.6 |
| 20260831204149 | 18 | 255 | 0.0 | 1.6 | 0.13 | 0.03 | 0.03 | 98 | 1073.7 |
| 20260831203149 | 18 | 201 | 3.2 | 3.2 | 0.00 | 0.00 | 0.00 | 98 | 1073.9 |
| 20260831202149 | 18 | 274 | 1.6 | 1.6 | 0.00 | 0.00 | 0.00 | 97 | 1073.8 |
| 20260831201148 | 18 | 255 | 1.6 | 1.6 | 0.00 | 0.00 | 0.00 | 97 | 1073.6 |
| 20260831200144 | 18 | 262 | 0.0 | 0.0 | 0.00 | 0.00 | 0.00 | 98 | 1073.8 |
| 20260831195140 | 18 | 266 | 0.0 | 0.0 | 0.00 | 0.00 | 0.00 | 99 | 1073.8 |
| 20260831194137 | 17 | 250 | 0.0 | 0.0 | 0.00 | 0.00 | 0.00 | 99 | 1073.9 |
| 20260831193132 | 17 | 255 | 3.2 | 3.2 | 0.00 | 0.00 | 0.00 | 99 | 1074.1 |
| 20260831192129 | 17 | 272 | 1.6 | 1.6 | 0.00 | 0.00 | 0.00 | 99 | 1074.1 |
| 20260831191126 | 18 | 276 | 3.2 | 3.2 | 0.00 | 0.00 | 0.00 | 96 | 1074.3 |
| 20260831190126 | 20 | 276 | 3.2 | 3.2 | 0.00 | 0.00 | 0.00 | 91 | 1074.5 |
| 20260831185123 | 20 | 272 | 1.6 | 1.6 | 0.00 | 0.00 | 0.00 | 90 | 1074.2 |
| 20260831184119 | 20 | 256 | 0.0 | 0.0 | 0.00 | 0.00 | 0.00 | 89 | 1074.2 |
| 20260831183118 | 20 | 273 | 1.6 | 1.6 | 0.00 | 0.00 | 0.00 | 88 | 1074.5 |
| 20260831182113 | 20 | 269 | 1.6 | 1.6 | 0.00 | 0.00 | 0.00 | 90 | 1074.6 |
| 20260831181113 | 19 | 265 | 1.6 | 1.6 | 0.00 | 0.00 | 0.00 | 91 | 1074.5 |
| 20260831180109 | 19 | 278 | 0.0 | 0.0 | 0.00 | 0.00 | 0.00 | 94 | 1074.6 |
| 20260831175107 | 19 | 258 | 0.0 | 1.6 | 0.00 | 0.00 | 0.00 | 95 | 1074.6 |
| 20260831174107 | 19 | 265 | 4.8 | 4.8 | 0.00 | 0.00 | 0.00 | 92 | 1074.9 |
| 20260831173102 | 20 | 265 | 3.2 | 3.2 | 0.00 | 0.00 | 0.00 | 91 | 1075.0 |
| 20260831172057 | 20 | 275 | 1.6 | 1.6 | 0.00 | 0.00 | 0.00 | 90 | 1075.1 |
| 20260831171055 | 20 | 275 | 8.0 | 8.0 | 0.00 | 0.00 | 0.00 | 89 | 1075.1 |
| 20260831170054 | 20 | 266 | 3.2 | 3.2 | 0.00 | 0.00 | 0.00 | 90 | 1075.1 |
| 20260831165051 | 20 | 252 | 4.8 | 8.0 | 0.00 | 0.00 | 0.00 | 90 | 1074.9 |
| 20260831164048 | 19 | 267 | 1.6 | 3.2 | 0.00 | 0.00 | 0.00 | 90 | 1075.0 |
| 20260831163044 | 20 | 256 | 6.4 | 8.0 | 0.00 | 0.00 | 0.00 | 90 | 1075.1 |
| 20260831162041 | 20 | 275 | 1.6 | 1.6 | 0.00 | 0.00 | 0.00 | 88 | 1075.3 |
| 20260831161040 | 20 | 268 | 1.6 | 1.6 | 0.00 | 0.00 | 0.00 | 87 | 1075.1 |
| 20260831160035 | 20 | 249 | 1.6 | 1.6 | 0.00 | 0.00 | 0.00 | 88 | 1075.3 |
| 20260831155030 | 20 | 205 | 1.6 | 1.6 | 0.00 | 0.00 | 0.00 | 89 | 1075.2 |
| 20260831154026 | 20 | 241 | 1.6 | 1.6 | 0.00 | 0.00 | 0.00 | 90 | 1075.3 |
| 20260831153023 | 20 | 277 | 0.0 | 1.6 | 0.00 | 0.00 | 0.00 | 88 | 1075.2 |
| 20260831152019 | 20 | 200 | 4.8 | 4.8 | 0.00 | 0.00 | 0.00 | 89 | 1075.2 |
| 20260831151019 | 20 | 201 | 3.2 | 3.2 | 0.00 | 0.00 | 0.00 | 91 | 1075.4 |
| 20260831150016 | 19 | 264 | 1.6 | 1.6 | 0.00 | 0.00 | 0.00 | 92 | 1075.4 |
| 20260831145012 | 19 | 257 | 6.4 | 8.0 | 0.00 | 0.00 | 0.00 | 91 | 1075.2 |
| 20260831144009 | 19 | 199 | 4.8 | 4.8 | 0.00 | 0.00 | 0.00 | 92 | 1075.2 |
| 20260831143005 | 18 | 243 | 1.6 | 1.6 | 0.00 | 0.00 | 0.00 | 92 | 1075.3 |
| 20260831142002 | 19 | 232 | 1.6 | 1.6 | 0.00 | 0.00 | 0.00 | 93 | 1075.1 |